[[{"header":{"parameterUnit":"m.s-1","parameterCategory":2,"la1":30.2991,"la2":30.254,"lo1":-89.0895,"lo2":-89.0444,"dy":0.0017,"dx":0.0017,"nx":28,"ny":28,"refTime":"2024-05-09T09:00:00:Z","depth":"0","parameterNumber":2,"parameterNumberName":"U-component_of_CURRENTS"},"data":[0,0,0,0,0,0,0,0,0,0,0,0,0,0,0,0,0,0,0,0,0,0,0,0,0,0,0,0,0,0,0,0,0,0,0,0,0,0,0,0,0,0,0,0,0,0,0,0,0,0,0,0,0,0,0,0,0,0,0.4589,0.4589,0,0.4614,0.4614,0.4614,0.4598,0.4598,0.4597,0.4597,0.4551,0.455,0.4549,0,0,0,0,0,0,0,0,0,0,0,0,0,0.4378,0.4383,0.4589,0.4589,0.459,0.4614,0.4614,0.4614,0.4598,0.4598,0.4597,0.4596,0.4551,0.455,0.4549,0,0,0,0,0,0,0,0,0,0,0,0,0,0.444,0.4384,0.4589,0.4587,0.4588,0.4614,0.4614,0.4614,0.4598,0.4598,0.4597,0.4596,0.4552,0.455,0.4549,0.4555,0,0,0.4546,0.4545,0,0,0,0,0,0,0,0,0.4437,0.4448,0.4587,0.4587,0.4588,0.4605,0.4523,0.4592,0.4598,0.4591,0.4597,0.4596,0.4565,0.4563,0.4565,0.4553,0.4551,0.4545,0.4545,0.4544,0.4544,0,0,0,0,0,0,0,0.4433,0.4446,0.4595,0.4588,0.4588,0.4534,0.4543,0.4535,0.4578,0.4592,0.4591,0.4599,0.4564,0.4567,0.4564,0.4551,0.4545,0.4544,0.4544,0.4543,0.4671,0.4675,0,0,0,0,0,0,0.4446,0.4443,0.4595,0.4597,0.4513,0.4539,0.4549,0.4597,0.4579,0.4577,0.46,0.4598,0.4569,0.4565,0.4562,0.4684,0.4544,0.4543,0.4542,0.4667,0.4672,0.4676,0,0,0,0,0,0,0.4442,0.4461,0.4594,0.4519,0.4533,0.4545,0.4598,0.4598,0.4609,0.4587,0.4583,0.4612,0.4568,0.4564,0.4612,0.4677,0.4543,0.4541,0.4662,0.4669,0.4674,0.4852,0,0,0,0,0,0,0.4437,0.446,0.4489,0.4522,0.4538,0.4631,0.4599,0.4599,0.4616,0.4615,0.4596,0.459,0.4567,0.4615,0.4611,0.4673,0.4541,0.4657,0.4665,0.4672,0.4841,0.4863,0.4882,0,0,0,0,0,0.443,0.4485,0.4492,0.4509,0.4583,0.4634,0.4637,0.4637,0.4618,0.464,0.4653,0.4591,0.466,0.4617,0.4612,0.4675,0.4653,0.4663,0.4672,0.4831,0.4859,0.4882,0,0,0,0,0,0,0.4398,0.449,0.4497,0.4575,0.4608,0.4632,0.4661,0.4647,0.4672,0.4674,0.464,0.4639,0.4715,0.4671,0.4624,0.4739,0.4647,0.4656,0.4771,0.4796,0.4816,0.477,0.454,0,0,0,0,0,0.4409,0.4483,0.4538,0.4595,0.463,0.4643,0.4658,0.4659,0.4687,0.4695,0.4687,0.4697,0.4748,0.4751,0.4775,0.482,0.4791,0.486,0.4881,0.4899,0.4862,0.4896,0.4916,0.4707,0.4707,0.4707,0,0,0.4401,0.4468,0.45,0.4593,0.4627,0.4695,0.4652,0.4698,0.4742,0.4686,0.4751,0.4771,0.4782,0.4864,0.4889,0.4831,0.4964,0.491,0.4926,0.4877,0.4908,0.4927,0.4945,0.4713,0.4712,0.4711,0,0,0.4447,0.4504,0.4588,0.4637,0.4707,0.4726,0.4745,0.4786,0.4801,0.4868,0.4865,0.4917,0.4961,0.4987,0.5009,0.5148,0.5086,0.5167,0.5215,0.5253,0.5269,0.5283,0.5351,0.5368,0.5161,0.5162,0.5162,0,0.4433,0.4552,0.4607,0.4705,0.4744,0.4753,0.4826,0.4861,0.4899,0.4914,0.4914,0.501,0.5022,0.5115,0.5183,0.5191,0.5207,0.5122,0.5278,0.529,0.53,0.5365,0.5382,0.5171,0.517,0.5169,0.5168,0,0.4543,0.4633,0.4692,0.4827,0.4875,0.4936,0.4997,0.5032,0.505,0.5066,0.5153,0.5187,0.5218,0.5271,0.5274,0.5368,0.5361,0.5315,0.5206,0.5332,0.5394,0.5409,0.5185,0.5182,0.5179,0.5176,0,0,0.4515,0.4727,0.4742,0.4802,0.4936,0.497,0.508,0.5149,0.5183,0.524,0.5296,0.5404,0.5374,0.5394,0.5405,0.5444,0.5584,0.5414,0.5412,0.5467,0.5701,0.5688,0.5702,0.5569,0.5571,0.5573,0.5742,0,0.4574,0.4752,0.4846,0.4966,0.5052,0.5106,0.5189,0.5246,0.5298,0.5355,0.5396,0.5467,0.5438,0.5471,0.5506,0.5553,0.5618,0.5543,0.5579,0.558,0.5539,0.5715,0.5432,0.5556,0.5755,0.5758,0.5759,0,0.4628,0.4749,0.4888,0.5022,0.5061,0.512,0.5208,0.5286,0.5384,0.543,0.5486,0.5516,0.5597,0.556,0.566,0.5616,0.5666,0.5703,0.571,0.562,0.559,0.5448,0.5573,0.5452,0.578,0.5779,0.5777,0,0.454,0.4746,0.4842,0.4896,0.507,0.5109,0.5179,0.5284,0.5341,0.547,0.5524,0.5599,0.5639,0.5702,0.5779,0.5728,0.5905,0.5836,0.588,0.5881,0.5599,0.5572,0.5576,0.5923,0.5922,0.5922,0.5921,0,0.454,0.4609,0.4797,0.4847,0.4922,0.5052,0.5127,0.5209,0.5334,0.5407,0.5525,0.56,0.5673,0.5778,0.5833,0.5918,0.5946,0.5914,0.5925,0.5666,0.5644,0.5486,0.5425,0.5928,0.5927,0.5926,0.5924,0,0.4427,0.4561,0.4664,0.4841,0.4885,0.4924,0.5086,0.5133,0.5278,0.5386,0.5437,0.5604,0.5764,0.5876,0.6012,0.5977,0.5919,0.6114,0.5833,0.5807,0.5669,0.5628,0.5427,0.5279,0.6151,0.6152,0.6153,0,0.4397,0.4446,0.4615,0.4655,0.4731,0.4833,0.4894,0.507,0.5144,0.5385,0.5423,0.5638,0.5767,0.5992,0.601,0.6133,0.5986,0.5939,0.577,0.5653,0.5616,0.5407,0.5281,0.5503,0.5498,0.5494,0.5491,0,0.4333,0.4375,0.4453,0.4543,0.4605,0.4698,0.4814,0.4859,0.5072,0.5179,0.5344,0.5483,0.5725,0.572,0.5907,0.5932,0.5628,0.5864,0.5776,0.5147,0.4875,0.4739,0.5448,0.5456,0.546,0.5462,0.5464,0.5466,0.4253,0.4268,0.4357,0.4411,0.4482,0.4536,0.4543,0.4677,0.4771,0.4879,0.5125,0.5223,0.538,0.5586,0.5607,0.5447,0.5443,0.5261,0.5245,0.5065,0.4819,0.5498,0.5498,0.5501,0.5504,0.5507,0.5509,0,0.4161,0.419,0.4235,0.4291,0.4287,0.4387,0.446,0.4425,0.4455,0.4624,0.4735,0.4819,0.4863,0.4999,0.4986,0.4834,0.4566,0.4723,0.4314,0.424,0.4868,0.4737,0.4527,0.4527,0.4527,0.4527,0.4527,0.4527,0.412,0.4113,0.4128,0.4089,0.4113,0.4048,0.4041,0.4005,0.4068,0.406,0.409,0.4218,0.4506,0.4615,0.4503,0.4386,0.4072,0.3863,0.394,0.4352,0.4397,0.444,0.4304,0.4006,0.4006,0.3059,0.3052,0.3047]},{"header":{"parameterUnit":"m.s-1","parameterCategory":2,"la1":30.2991,"la2":30.254,"lo1":-89.0895,"lo2":-89.0444,"dy":0.0017,"dx":0.0017,"nx":28,"ny":28,"refTime":"2024-05-09T09:00:00:Z","depth":"0","parameterNumber":3,"parameterNumberName":"V-component_of_CURRENTS"},"data":[0,0,0,0,0,0,0,0,0,0,0,0,0,0,0,0,0,0,0,0,0,0,0,0,0,0,0,0,0,0,0,0,0,0,0,0,0,0,0,0,0,0,0,0,0,0,0,0,0,0,0,0,0,0,0,0,0,0,-0.0612,-0.0612,0,-0.0685,-0.0686,-0.0687,-0.073,-0.0729,-0.0729,-0.0729,-0.0856,-0.0859,-0.0863,0,0,0,0,0,0,0,0,0,0,0,0,0,-0.0467,-0.047,-0.0612,-0.0612,-0.0613,-0.0684,-0.0686,-0.0688,-0.073,-0.0729,-0.0729,-0.0728,-0.0855,-0.0859,-0.0863,0,0,0,0,0,0,0,0,0,0,0,0,0,-0.0539,-0.0471,-0.0612,-0.0638,-0.0641,-0.0684,-0.0686,-0.0688,-0.073,-0.0729,-0.0729,-0.0728,-0.0853,-0.0858,-0.0864,-0.0908,0,0,-0.0881,-0.0883,0,0,0,0,0,0,0,0,-0.0535,-0.0545,-0.0634,-0.0637,-0.064,-0.0693,-0.0681,-0.0762,-0.073,-0.0702,-0.0729,-0.0728,-0.0803,-0.0813,-0.0835,-0.0914,-0.0919,-0.0881,-0.0885,-0.0887,-0.0889,0,0,0,0,0,0,0,-0.053,-0.0542,-0.0646,-0.0634,-0.0638,-0.0631,-0.0642,-0.0697,-0.076,-0.0704,-0.0706,-0.0706,-0.0806,-0.0829,-0.0838,-0.0921,-0.0881,-0.0886,-0.089,-0.0892,-0.1153,-0.1156,0,0,0,0,0,0,-0.0514,-0.0538,-0.0644,-0.0648,-0.0579,-0.0634,-0.0647,-0.0681,-0.0758,-0.0767,-0.0706,-0.0707,-0.082,-0.0831,-0.0842,-0.0976,-0.0887,-0.0892,-0.0895,-0.1149,-0.1154,-0.1158,0,0,0,0,0,0,-0.0511,-0.0524,-0.0641,-0.0587,-0.0601,-0.0637,-0.0675,-0.0682,-0.0702,-0.0758,-0.0769,-0.0717,-0.082,-0.0835,-0.0962,-0.0978,-0.0895,-0.09,-0.1145,-0.1151,-0.1156,-0.1193,0,0,0,0,0,0,-0.0507,-0.0523,-0.0537,-0.0588,-0.0604,-0.0683,-0.0675,-0.0684,-0.07,-0.0703,-0.0771,-0.0782,-0.0821,-0.0955,-0.0968,-0.0984,-0.0904,-0.1141,-0.1148,-0.1154,-0.1188,-0.12,-0.121,0,0,0,0,0,-0.0502,-0.0527,-0.0539,-0.055,-0.0625,-0.0684,-0.0693,-0.0718,-0.0701,-0.073,-0.0815,-0.078,-0.1005,-0.0964,-0.0978,-0.0996,-0.1137,-0.1146,-0.1153,-0.1183,-0.1197,-0.1209,0,0,0,0,0,0,-0.0461,-0.0535,-0.0548,-0.0592,-0.0639,-0.0689,-0.0716,-0.0714,-0.0797,-0.0804,-0.0849,-0.0871,-0.0991,-0.1001,-0.0953,-0.1096,-0.1055,-0.1067,-0.1072,-0.1086,-0.1097,-0.1005,-0.0909,0,0,0,0,0,-0.046,-0.0505,-0.0566,-0.0598,-0.0634,-0.067,-0.069,-0.0704,-0.0776,-0.0807,-0.087,-0.0943,-0.1035,-0.1066,-0.1157,-0.1229,-0.118,-0.1247,-0.1258,-0.1267,-0.1207,-0.1226,-0.1231,-0.1184,-0.1184,-0.1184,0,0,-0.0437,-0.0491,-0.0508,-0.0592,-0.0639,-0.07,-0.0685,-0.0727,-0.0766,-0.0811,-0.0919,-0.1001,-0.1076,-0.119,-0.1234,-0.1192,-0.1256,-0.1277,-0.1283,-0.1217,-0.1235,-0.1238,-0.1241,-0.119,-0.1189,-0.1188,0,0,-0.0432,-0.0492,-0.0532,-0.0591,-0.066,-0.0706,-0.0715,-0.0789,-0.082,-0.0928,-0.0985,-0.1077,-0.1205,-0.1263,-0.1303,-0.142,-0.1338,-0.1444,-0.1392,-0.1415,-0.1417,-0.1417,-0.1344,-0.1337,-0.142,-0.142,-0.142,0,-0.0401,-0.0468,-0.0546,-0.0615,-0.065,-0.0712,-0.0753,-0.0816,-0.0916,-0.0925,-0.0972,-0.1145,-0.1231,-0.1311,-0.1372,-0.1435,-0.1397,-0.1333,-0.1421,-0.1421,-0.1421,-0.1346,-0.1338,-0.1423,-0.1422,-0.1422,-0.1422,0,-0.0428,-0.0491,-0.0531,-0.0648,-0.0706,-0.0753,-0.0848,-0.0897,-0.0942,-0.0978,-0.1076,-0.1213,-0.1274,-0.1345,-0.1401,-0.1441,-0.1398,-0.1453,-0.1367,-0.1426,-0.1345,-0.1336,-0.1427,-0.1426,-0.1425,-0.1424,0,0,-0.0327,-0.0509,-0.0515,-0.0557,-0.0717,-0.0746,-0.0845,-0.0906,-0.0885,-0.1029,-0.1007,-0.1224,-0.1232,-0.1278,-0.1354,-0.138,-0.1388,-0.1401,-0.1401,-0.1284,-0.1352,-0.1257,-0.1237,-0.1459,-0.1458,-0.1458,-0.1286,0,-0.0314,-0.0411,-0.0516,-0.0592,-0.0653,-0.0748,-0.0811,-0.087,-0.0922,-0.0936,-0.1041,-0.1085,-0.1226,-0.1225,-0.1298,-0.1363,-0.1369,-0.1422,-0.1344,-0.1339,-0.1215,-0.1227,-0.1175,-0.1013,-0.1277,-0.1276,-0.1274,0,-0.0284,-0.0362,-0.0425,-0.0532,-0.056,-0.0608,-0.0641,-0.0694,-0.075,-0.0776,-0.0834,-0.0902,-0.0974,-0.1084,-0.1182,-0.1204,-0.1265,-0.1317,-0.1314,-0.1186,-0.1228,-0.1006,-0.0987,-0.1236,-0.126,-0.1261,-0.1262,0,-0.0129,-0.0277,-0.0306,-0.0355,-0.0502,-0.0503,-0.0555,-0.0616,-0.0591,-0.0626,-0.0572,-0.0715,-0.0711,-0.0857,-0.0989,-0.1075,-0.1042,-0.1181,-0.1136,-0.1126,-0.1039,-0.1023,-0.1207,-0.1221,-0.1222,-0.1222,-0.1223,0,-0.0062,-0.0083,-0.0222,-0.0237,-0.0212,-0.0361,-0.0296,-0.0348,-0.0361,-0.0268,-0.0445,-0.0359,-0.0656,-0.0688,-0.0869,-0.0922,-0.0948,-0.1074,-0.1078,-0.1052,-0.104,-0.1217,-0.1362,-0.1216,-0.1217,-0.1218,-0.1219,0,0.0099,-0.0001,-0.0017,-0.0127,-0.0138,-0.01,-0.0118,-0.006,-0.0097,0.0035,0.005,-0.0053,-0.0082,-0.0319,-0.0489,-0.0695,-0.0891,-0.0812,-0.0706,-0.0703,-0.0945,-0.1091,-0.1149,-0.1239,-0.0743,-0.074,-0.0737,0,0.0154,0.0159,0.0127,0.0161,0.0117,0.0141,0.0179,0.0106,0.018,0.0266,0.0367,0.0368,0.042,0.0222,-0.012,-0.0345,-0.066,-0.0491,-0.0692,-0.0897,-0.1067,-0.1197,-0.1283,-0.0582,-0.0578,-0.0575,-0.0572,0,0.0265,0.0285,0.0287,0.0365,0.0414,0.0469,0.051,0.0614,0.0597,0.0745,0.0939,0.1003,0.0812,0.0595,0.0231,0.0016,-0.0648,-0.0431,-0.071,-0.0978,-0.1063,-0.117,-0.0703,-0.0544,-0.0547,-0.0549,-0.0551,-0.0552,0.0381,0.0439,0.0473,0.056,0.0641,0.0763,0.0869,0.0972,0.117,0.1409,0.142,0.161,0.1173,0.0697,0.0352,-0.0303,-0.0379,-0.058,-0.0732,-0.0838,-0.0968,-0.0373,-0.0203,-0.0203,-0.0204,-0.0205,-0.0205,0,0.0486,0.0544,0.064,0.0748,0.0889,0.0882,0.1063,0.1209,0.1518,0.1791,0.201,0.1979,0.1455,0.0819,-0.0057,-0.0561,-0.0817,-0.0864,-0.1116,-0.119,-0.0705,-0.0748,-0.0608,-0.0608,-0.0608,-0.0607,-0.0607,-0.0607,0.0536,0.0649,0.0694,0.0922,0.1026,0.1221,0.1352,0.1621,0.1851,0.2267,0.2458,0.2543,0.2055,0.0407,-0.0759,-0.1035,-0.1445,-0.1467,-0.1695,-0.1474,-0.1464,-0.1455,-0.1536,-0.1563,-0.1565,-0.2139,-0.2145,-0.2149]}],[{"header":{"parameterUnit":"m.s-1","parameterCategory":2,"la1":30.2991,"la2":30.254,"lo1":-89.0895,"lo2":-89.0444,"dy":0.0017,"dx":0.0017,"nx":28,"ny":28,"refTime":"2024-05-09T09:00:00:Z","depth":"2","parameterNumber":2,"parameterNumberName":"U-component_of_CURRENTS"},"data":[0,0,0,0,0,0,0,0,0,0,0,0,0,0,0,0,0,0,0,0,0,0,0,0,0,0,0,0,0,0,0,0,0,0,0,0,0,0,0,0,0,0,0,0,0,0,0,0,0,0,0,0,0,0,0,0,0,0,0.3301,0.3304,0,0.3403,0.3403,0.3403,0.3375,0.3374,0.3373,0.3373,0.3359,0.3359,0.336,0,0,0,0,0,0,0,0,0,0,0,0,0,0.3172,0.3173,0.3301,0.3304,0.3306,0.3403,0.3403,0.3403,0.3375,0.3374,0.3373,0.3372,0.3359,0.3359,0.336,0,0,0,0,0,0,0,0,0,0,0,0,0,0.3233,0.3173,0.3301,0.3314,0.3318,0.3403,0.3403,0.3403,0.3375,0.3374,0.3373,0.3372,0.3359,0.3359,0.336,0.3386,0,0,0.3362,0.3362,0,0,0,0,0,0,0,0,0.3229,0.3235,0.331,0.3314,0.3318,0.3387,0.3354,0.3397,0.3375,0.3338,0.3373,0.3371,0.3368,0.3368,0.3371,0.3385,0.3385,0.3362,0.3362,0.3362,0.3362,0,0,0,0,0,0,0,0.3225,0.3232,0.3327,0.3313,0.3318,0.3347,0.3352,0.3361,0.3345,0.3341,0.3343,0.3377,0.3367,0.337,0.337,0.3385,0.3362,0.3362,0.3362,0.3363,0.349,0.3493,0,0,0,0,0,0,0.3237,0.3227,0.3324,0.3332,0.3286,0.3351,0.3356,0.3355,0.3348,0.3351,0.3378,0.3376,0.337,0.337,0.337,0.3457,0.3362,0.3363,0.3363,0.3487,0.3491,0.3494,0,0,0,0,0,0,0.3233,0.3243,0.332,0.3295,0.3309,0.3355,0.3354,0.3358,0.3383,0.338,0.3377,0.3404,0.3369,0.3369,0.3374,0.3454,0.3363,0.3363,0.3484,0.3488,0.3493,0.3594,0,0,0,0,0,0,0.3228,0.324,0.3261,0.3295,0.3311,0.3347,0.3357,0.3361,0.3411,0.3409,0.3401,0.3397,0.3368,0.3373,0.3374,0.3453,0.3364,0.348,0.3486,0.3491,0.3587,0.3602,0.3615,0,0,0,0,0,0.3223,0.3252,0.326,0.3275,0.333,0.3348,0.3356,0.3378,0.3414,0.3401,0.341,0.3398,0.3413,0.3374,0.3375,0.3456,0.3477,0.3484,0.3491,0.3581,0.3599,0.3614,0,0,0,0,0,0,0.3211,0.3254,0.3263,0.3305,0.3317,0.3348,0.3364,0.3402,0.3406,0.3421,0.341,0.3405,0.3426,0.3437,0.3396,0.3514,0.3456,0.3463,0.3525,0.3541,0.3555,0.3515,0.3364,0,0,0,0,0,0.3222,0.3249,0.3276,0.3311,0.3307,0.3345,0.3372,0.3395,0.3411,0.3414,0.3424,0.345,0.3458,0.3492,0.347,0.3549,0.3552,0.3613,0.3626,0.3638,0.3609,0.3683,0.37,0.3517,0.3517,0.3517,0,0,0.3228,0.3266,0.3278,0.3312,0.3317,0.3337,0.3351,0.3391,0.3442,0.3414,0.347,0.3462,0.3473,0.3522,0.3546,0.3552,0.3704,0.3647,0.3656,0.362,0.3692,0.3709,0.3725,0.3522,0.3521,0.352,0,0,0.3245,0.3269,0.328,0.3296,0.334,0.3362,0.3381,0.3421,0.3451,0.3502,0.3504,0.3539,0.3575,0.3604,0.3625,0.3715,0.3731,0.3753,0.3842,0.3916,0.393,0.3943,0.4013,0.4031,0.3814,0.3814,0.3814,0,0.326,0.3273,0.3287,0.3306,0.3343,0.3374,0.3398,0.3438,0.3497,0.3543,0.352,0.361,0.3607,0.371,0.3734,0.3744,0.3788,0.3777,0.3932,0.3944,0.3955,0.4024,0.4042,0.382,0.3819,0.3819,0.3818,0,0.3265,0.3292,0.3294,0.3328,0.3367,0.3389,0.3448,0.3511,0.357,0.3614,0.3694,0.3696,0.376,0.3799,0.3783,0.3909,0.3914,0.3897,0.3883,0.398,0.4046,0.4064,0.3828,0.3826,0.3824,0.3823,0,0,0.3266,0.3287,0.3304,0.332,0.3386,0.3421,0.3518,0.3596,0.3675,0.3736,0.3833,0.387,0.3889,0.3912,0.3947,0.4025,0.4148,0.4015,0.4016,0.4071,0.433,0.423,0.4239,0.4177,0.4179,0.4182,0.4359,0,0.3259,0.3287,0.3332,0.339,0.3384,0.3481,0.3574,0.3682,0.3735,0.3828,0.39,0.3958,0.3939,0.399,0.4064,0.4123,0.4192,0.41,0.4236,0.4239,0.4128,0.4255,0.3935,0.4056,0.4376,0.4379,0.4381,0,0.3255,0.3274,0.3303,0.3409,0.3425,0.3493,0.3649,0.3757,0.3895,0.3949,0.4039,0.4049,0.4198,0.4128,0.4309,0.4268,0.4282,0.4311,0.432,0.4185,0.4169,0.4004,0.4075,0.4409,0.4407,0.4405,0.4403,0,0.3229,0.3284,0.331,0.3336,0.3443,0.3526,0.3639,0.3785,0.3898,0.4035,0.4105,0.4223,0.4342,0.4386,0.4441,0.4401,0.4599,0.456,0.4476,0.4471,0.4194,0.4158,0.4614,0.4613,0.4613,0.4613,0.4612,0,0.3211,0.3246,0.3292,0.331,0.3436,0.3522,0.3678,0.3822,0.3968,0.408,0.4177,0.4267,0.4408,0.4514,0.4509,0.4579,0.4676,0.4491,0.4511,0.4226,0.4193,0.4472,0.4453,0.4619,0.4618,0.4616,0.4615,0,0.3176,0.3203,0.3233,0.3329,0.342,0.3515,0.376,0.3816,0.4007,0.4156,0.4214,0.4399,0.4546,0.463,0.4744,0.4704,0.4736,0.47,0.4356,0.4329,0.454,0.4525,0.4659,0.4657,0.4656,0.4654,0.4653,0,0.3154,0.315,0.3264,0.331,0.3358,0.3523,0.3634,0.3857,0.3911,0.4197,0.4242,0.4447,0.4496,0.4691,0.4676,0.4695,0.4723,0.4377,0.4197,0.4539,0.4546,0.4534,0.4521,0.3905,0.3898,0.3892,0.3887,0,0.3108,0.3134,0.3172,0.3259,0.3354,0.3469,0.3627,0.3683,0.3903,0.4011,0.4127,0.4192,0.4412,0.4314,0.4396,0.4339,0.4355,0.4255,0.4743,0.3926,0.3837,0.3841,0.3852,0.3834,0.384,0.3844,0.3846,0.3848,0.3088,0.3086,0.3127,0.3204,0.3299,0.3322,0.3371,0.345,0.356,0.3653,0.3857,0.3883,0.4008,0.3964,0.3862,0.3822,0.4096,0.39,0.3914,0.3936,0.38,0.3711,0.3661,0.3665,0.3669,0.3672,0.3674,0,0.3034,0.3029,0.3068,0.3124,0.3099,0.324,0.3292,0.3234,0.322,0.336,0.3423,0.323,0.3226,0.334,0.3216,0.3233,0.3164,0.3083,0.2963,0.3022,0.3073,0.2886,0.2508,0.2504,0.2499,0.2495,0,0,0.2981,0.2986,0.2971,0.2908,0.2939,0.2883,0.2855,0.2803,0.2832,0.2759,0.2786,0.3069,0.3249,0.2824,0.28,0.2623,0.2777,0.252,0.3474,0.3392,0.3435,0.3587,0.3372,0,0,0,0,0]},{"header":{"parameterUnit":"m.s-1","parameterCategory":2,"la1":30.2991,"la2":30.254,"lo1":-89.0895,"lo2":-89.0444,"dy":0.0017,"dx":0.0017,"nx":28,"ny":28,"refTime":"2024-05-09T09:00:00:Z","depth":"2","parameterNumber":3,"parameterNumberName":"V-component_of_CURRENTS"},"data":[0,0,0,0,0,0,0,0,0,0,0,0,0,0,0,0,0,0,0,0,0,0,0,0,0,0,0,0,0,0,0,0,0,0,0,0,0,0,0,0,0,0,0,0,0,0,0,0,0,0,0,0,0,0,0,0,0,0,0.0265,0.0264,0,0.0161,0.016,0.0159,0.0113,0.0112,0.0112,0.0112,-0.0002,-0.0005,-0.0007,0,0,0,0,0,0,0,0,0,0,0,0,0,0.0287,0.0288,0.0265,0.0263,0.0262,0.0161,0.016,0.0159,0.0113,0.0112,0.0112,0.0111,-0.0001,-0.0004,-0.0008,0,0,0,0,0,0,0,0,0,0,0,0,0,0.0245,0.0289,0.0266,0.0222,0.0217,0.0161,0.016,0.0159,0.0113,0.0112,0.0112,0.0111,-0.0,-0.0004,-0.0008,-0.0022,0,0,-0.002,-0.0022,0,0,0,0,0,0,0,0,0.0248,0.0245,0.0231,0.0225,0.0219,0.0145,0.0126,0.0096,0.0113,0.0158,0.0112,0.0111,0.0043,0.0035,0.0025,-0.0028,-0.0032,-0.0021,-0.0023,-0.0025,-0.0026,0,0,0,0,0,0,0,0.0251,0.0248,0.0229,0.0229,0.0222,0.0161,0.0156,0.012,0.0109,0.0154,0.0149,0.0129,0.0041,0.0029,0.0022,-0.0034,-0.0021,-0.0024,-0.0027,-0.0028,-0.0084,-0.0083,0,0,0,0,0,0,0.0261,0.0252,0.0232,0.0226,0.0226,0.0161,0.0156,0.0173,0.0109,0.0097,0.013,0.0127,0.0036,0.0026,0.0017,0.004,-0.0025,-0.0029,-0.0031,-0.0085,-0.0084,-0.0083,0,0,0,0,0,0,0.0263,0.0262,0.0237,0.0229,0.0221,0.0162,0.0181,0.0172,0.0156,0.009,0.0079,0.0124,0.0035,0.0023,0.0019,0.0033,-0.0031,-0.0034,-0.0086,-0.0085,-0.0083,0.0056,0,0,0,0,0,0,0.0265,0.0265,0.0279,0.0232,0.0222,0.0234,0.0181,0.017,0.0142,0.0138,0.0081,0.007,0.0034,0.0026,0.0015,0.0026,-0.0037,-0.0087,-0.0086,-0.0084,0.005,0.0062,0.0072,0,0,0,0,0,0.0267,0.0297,0.0282,0.0278,0.0247,0.0235,0.0227,0.0183,0.0143,0.0162,0.0127,0.0072,0.0028,0.0025,0.0012,0.0022,-0.0088,-0.0086,-0.0084,0.0046,0.006,0.0072,0,0,0,0,0,0,0.0306,0.0293,0.0275,0.0298,0.0278,0.0226,0.0232,0.0186,0.017,0.0154,0.0096,0.0086,0.0096,0.0034,0.0031,0.0008,-0.0046,-0.0046,0.0057,0.007,0.0081,0.0106,-0.0041,0,0,0,0,0,0.0323,0.0354,0.0318,0.0339,0.0337,0.0282,0.0265,0.0225,0.0197,0.0187,0.0155,0.0109,0.0093,0.0064,0.005,0.0028,-0.0032,0.0019,0.003,0.004,0.0051,-0.0017,-0.0011,-0.0076,-0.0076,-0.0076,0,0,0.0334,0.0337,0.0347,0.035,0.0333,0.0349,0.0275,0.0256,0.0265,0.0176,0.0201,0.0164,0.0104,0.0109,0.01,0.0054,0.0029,0.0043,0.0052,0.0057,-0.0014,-0.0008,-0.0002,-0.0075,-0.0075,-0.0075,0,0,0.0394,0.0392,0.0442,0.0436,0.0412,0.0387,0.0385,0.0342,0.0331,0.0337,0.0282,0.0257,0.0226,0.0188,0.0161,0.0212,0.0114,0.0189,0.0237,0.0172,0.0176,0.018,0.0124,0.0121,0.0165,0.0166,0.0166,0,0.0406,0.0469,0.0449,0.0491,0.0484,0.0416,0.0444,0.0433,0.0392,0.0393,0.0369,0.032,0.0269,0.025,0.0271,0.0238,0.0183,0.0197,0.0187,0.0189,0.019,0.0131,0.0127,0.0172,0.0172,0.0171,0.017,0,0.0492,0.0541,0.0573,0.0617,0.0608,0.0621,0.0589,0.0598,0.0567,0.0539,0.0535,0.0467,0.0429,0.0399,0.0354,0.0326,0.0282,0.0235,0.0159,0.0206,0.014,0.0133,0.0183,0.018,0.0178,0.0176,0,0,0.0523,0.0619,0.0624,0.0673,0.0664,0.0671,0.0705,0.0716,0.0734,0.0696,0.0711,0.0664,0.0599,0.0562,0.0475,0.0397,0.0362,0.0318,0.0311,0.0273,0.0219,0.0186,0.0173,0.0306,0.0305,0.0305,0.0174,0,0.0599,0.072,0.0721,0.0812,0.0873,0.0827,0.086,0.0844,0.0838,0.0848,0.0756,0.0739,0.0666,0.0621,0.0552,0.0405,0.0346,0.0402,0.017,0.0164,0.0136,0.0165,0.0203,0.0089,0.0166,0.0165,0.0164,0,0.0668,0.0756,0.0862,0.0937,0.0948,0.0975,0.1002,0.1003,0.0992,0.0974,0.0937,0.0878,0.0776,0.0701,0.0497,0.0531,0.0407,0.0288,0.0279,0.0194,0.0117,0.005,0.0071,0.015,0.0151,0.0152,0.0153,0,0.071,0.0837,0.0934,0.0956,0.1027,0.1056,0.1055,0.105,0.1063,0.1032,0.1044,0.0935,0.0867,0.0697,0.0496,0.0482,0.0269,0.0211,0.0075,0.0071,0.0031,0.0024,0.0098,0.0098,0.0099,0.0099,0.0099,0,0.0779,0.0857,0.0976,0.1028,0.1103,0.1107,0.1154,0.1137,0.1144,0.1185,0.1091,0.1108,0.0863,0.0737,0.0533,0.0289,0.03,0.0097,0.0037,0.0081,0.0081,0.0072,0.0071,0.0094,0.0095,0.0096,0.0097,0,0.0804,0.0881,0.1007,0.1117,0.1129,0.1167,0.1197,0.1263,0.1228,0.1282,0.1274,0.1214,0.1039,0.0804,0.0517,0.034,0.0094,0.0018,0.0094,0.0046,-0.007,-0.0063,-0.017,-0.0173,-0.0174,-0.0176,-0.0177,0,0.0837,0.0915,0.1045,0.1109,0.1162,0.1222,0.1272,0.1273,0.1357,0.1372,0.1428,0.1303,0.1262,0.0826,0.0474,0.0108,0.0084,-0.0089,-0.0108,-0.0049,-0.0097,-0.0087,-0.0077,-0.0108,-0.0109,-0.0109,-0.011,0,0.0908,0.0947,0.1041,0.1168,0.1256,0.1344,0.1431,0.151,0.1551,0.1609,0.1671,0.1629,0.1261,0.0905,0.0416,0.0183,-0.004,-0.0113,-0.0081,-0.0038,0.0001,-0.0044,-0.0035,-0.0115,-0.0114,-0.0114,-0.0113,-0.0113,0.0943,0.1004,0.1124,0.1234,0.1342,0.1483,0.1561,0.1702,0.1809,0.1898,0.1856,0.1773,0.1392,0.0754,0.0342,-0.0087,-0.0066,-0.0218,-0.0212,-0.0208,-0.0169,-0.0135,-0.0268,-0.0269,-0.0269,-0.0269,-0.027,0,0.1014,0.1077,0.1189,0.1334,0.1477,0.1513,0.1692,0.1788,0.1953,0.2014,0.2026,0.1652,0.1256,0.0808,0.0165,-0.0215,-0.0226,-0.0328,-0.0259,-0.0251,-0.0245,-0.0206,-0.0317,-0.0318,-0.0319,-0.032,0,0,0.1053,0.1156,0.1207,0.1427,0.1543,0.1717,0.1825,0.1947,0.2024,0.2066,0.2011,0.1899,0.138,0.0907,0.0399,0.0033,-0.002,-0.0033,0.0049,0.02,0.021,-0.0137,-0.0063,0,0,0,0,0]}],[{"header":{"parameterUnit":"m.s-1","parameterCategory":2,"la1":30.2991,"la2":30.254,"lo1":-89.0895,"lo2":-89.0444,"dy":0.0017,"dx":0.0017,"nx":28,"ny":28,"refTime":"2024-05-09T09:00:00:Z","depth":"4","parameterNumber":2,"parameterNumberName":"U-component_of_CURRENTS"},"data":[0,0,0,0,0,0,0,0,0,0,0,0,0,0,0,0,0,0,0,0,0,0,0,0,0,0,0,0,0,0,0,0,0,0,0,0,0,0,0,0,0,0,0,0,0,0,0,0,0,0,0,0,0,0,0,0,0,0,0.1799,0.18,0,0.1869,0.1869,0.187,0.193,0.1931,0.1932,0.1933,0.2031,0.2033,0.2034,0,0,0,0,0,0,0,0,0,0,0,0,0,0.1729,0.1729,0.1799,0.18,0.1802,0.1869,0.1869,0.187,0.1929,0.1931,0.1932,0.1934,0.2031,0.2032,0.2034,0,0,0,0,0,0,0,0,0,0,0,0,0,0.177,0.1729,0.1799,0.1844,0.1849,0.1869,0.1869,0.187,0.1929,0.1931,0.1933,0.1934,0.203,0.2032,0.2035,0.2014,0,0,0.2042,0.2043,0,0,0,0,0,0,0,0,0.1767,0.1772,0.1836,0.1841,0.1846,0.1897,0.1881,0.1921,0.1929,0.1893,0.1933,0.1935,0.1991,0.1997,0.1998,0.2019,0.2023,0.2042,0.2043,0.2044,0.2045,0,0,0,0,0,0,0,0.1764,0.1769,0.1821,0.1837,0.1844,0.1865,0.1872,0.1888,0.1928,0.1896,0.1902,0.1918,0.1994,0.1996,0.2001,0.2024,0.2042,0.2044,0.2045,0.2046,0.2182,0.2184,0,0,0,0,0,0,0.1764,0.1766,0.1819,0.1824,0.1816,0.1865,0.1872,0.1875,0.1927,0.1938,0.1916,0.192,0.1991,0.1998,0.2005,0.2089,0.2044,0.2046,0.2048,0.2179,0.2182,0.2184,0,0,0,0,0,0,0.1762,0.1767,0.1816,0.1802,0.181,0.1865,0.1866,0.1875,0.1922,0.1943,0.1954,0.196,0.1992,0.2002,0.2058,0.2089,0.2047,0.2049,0.2177,0.218,0.2183,0.2189,0,0,0,0,0,0,0.1759,0.1765,0.1778,0.1801,0.1811,0.1854,0.1866,0.1876,0.1929,0.1936,0.1983,0.1991,0.1994,0.2054,0.206,0.2092,0.2051,0.2174,0.2178,0.2182,0.2186,0.2192,0.2198,0,0,0,0,0,0.1756,0.1757,0.1777,0.1785,0.1822,0.1856,0.1863,0.1903,0.193,0.1951,0.1989,0.1992,0.2086,0.2057,0.2064,0.2097,0.2172,0.2177,0.2182,0.2184,0.2191,0.2198,0,0,0,0,0,0,0.174,0.1764,0.1787,0.1799,0.1841,0.1869,0.1896,0.1925,0.1969,0.1994,0.2008,0.2019,0.2079,0.2095,0.2063,0.2153,0.2134,0.2141,0.2134,0.2141,0.2147,0.2184,0.2053,0,0,0,0,0,0.174,0.1747,0.1785,0.1803,0.1826,0.187,0.1895,0.1931,0.1969,0.1992,0.202,0.2063,0.2095,0.2125,0.2151,0.2196,0.2229,0.2229,0.2234,0.2239,0.2278,0.2347,0.2362,0.2201,0.2201,0.2201,0,0,0.1749,0.1758,0.1771,0.1802,0.1838,0.1871,0.1889,0.1946,0.1977,0.1995,0.2048,0.2079,0.2112,0.2159,0.219,0.2183,0.2298,0.2245,0.2248,0.2286,0.2354,0.237,0.2384,0.2204,0.2204,0.2203,0,0,0.1752,0.1775,0.1783,0.182,0.188,0.19,0.1927,0.1978,0.2008,0.2058,0.2084,0.2149,0.2183,0.2223,0.2243,0.2305,0.2319,0.2313,0.2376,0.2442,0.2456,0.2468,0.2502,0.2518,0.2322,0.2322,0.2322,0,0.1765,0.1772,0.1798,0.1823,0.1858,0.1917,0.1952,0.1983,0.2048,0.2085,0.2085,0.2191,0.2216,0.2295,0.2323,0.2318,0.235,0.2335,0.2448,0.2461,0.2474,0.2506,0.2523,0.2323,0.2323,0.2322,0.2322,0,0.1777,0.1799,0.1814,0.1854,0.1894,0.1939,0.1991,0.2036,0.2078,0.2122,0.2213,0.2252,0.233,0.2339,0.235,0.2461,0.245,0.2435,0.2422,0.249,0.252,0.2537,0.2324,0.2324,0.2323,0.2323,0,0,0.1757,0.1808,0.182,0.1843,0.1919,0.1949,0.2007,0.2076,0.2145,0.2201,0.2285,0.2354,0.2414,0.2447,0.2475,0.2542,0.2643,0.2542,0.2545,0.2563,0.2778,0.2627,0.2632,0.2645,0.2649,0.2652,0.275,0,0.1763,0.1797,0.1827,0.188,0.1905,0.1976,0.2025,0.2109,0.2182,0.2276,0.2349,0.2448,0.2439,0.2507,0.2568,0.2639,0.2697,0.2618,0.2724,0.2728,0.2575,0.265,0.2664,0.2764,0.2768,0.2771,0.2773,0,0.1762,0.1778,0.1828,0.1886,0.191,0.1962,0.2075,0.213,0.2275,0.2351,0.2471,0.2539,0.2672,0.2645,0.2794,0.2746,0.2781,0.2814,0.2817,0.2698,0.2611,0.2693,0.2805,0.2803,0.28,0.2798,0.2796,0,0.1719,0.1775,0.1809,0.1838,0.1922,0.1971,0.2028,0.2169,0.2247,0.2434,0.2539,0.2669,0.2775,0.2839,0.2919,0.2876,0.3064,0.2996,0.2884,0.2872,0.2972,0.2958,0.3103,0.3103,0.3103,0.3103,0.3102,0,0.1685,0.1712,0.1801,0.1822,0.1883,0.196,0.2062,0.216,0.2328,0.2446,0.2592,0.2707,0.2841,0.295,0.2973,0.2994,0.3106,0.2927,0.2904,0.2967,0.2952,0.2982,0.2967,0.3106,0.3105,0.3105,0.3104,0,0.1621,0.1681,0.1723,0.1824,0.1864,0.1916,0.2066,0.2145,0.2332,0.2495,0.2571,0.2787,0.293,0.3027,0.3157,0.3064,0.3098,0.3075,0.3156,0.3131,0.2837,0.2822,0.2935,0.2931,0.2927,0.2924,0.2922,0,0.1581,0.1603,0.1721,0.176,0.181,0.19,0.1967,0.2137,0.2225,0.2516,0.2578,0.281,0.2926,0.298,0.3087,0.3122,0.3087,0.3062,0.2931,0.2862,0.2829,0.2819,0.2808,0.2916,0.2916,0.2915,0.2914,0,0.1498,0.157,0.1609,0.1697,0.1771,0.183,0.1935,0.1995,0.2198,0.2395,0.2546,0.2647,0.2808,0.2888,0.2962,0.2969,0.305,0.3024,0.3029,0.2905,0.2841,0.2809,0.2803,0.2902,0.2903,0.2904,0.2905,0,0.1451,0.1466,0.1543,0.1607,0.1686,0.1721,0.1797,0.1892,0.1999,0.2306,0.2351,0.2595,0.2784,0.2814,0.2874,0.2888,0.282,0.2693,0.2713,0.2728,0.2616,0.2501,0.2466,0,0,0,0,0,0.1386,0.1389,0.1441,0.1482,0.1556,0.1606,0.175,0.1835,0.2037,0.2089,0.2214,0.2353,0.2485,0.2601,0.2573,0.2772,0.2821,0.2724,0.2681,0.2834,0.2848,0.2736,0,0,0,0,0,0,0.1335,0.1375,0.1391,0.1357,0.1371,0.143,0.1523,0.1676,0.1699,0.1933,0.2015,0.2194,0.235,0.2476,0.2521,0.2555,0.2477,0.2866,0.286,0.2826,0.2839,0.285,0.274,0,0,0,0,0]},{"header":{"parameterUnit":"m.s-1","parameterCategory":2,"la1":30.2991,"la2":30.254,"lo1":-89.0895,"lo2":-89.0444,"dy":0.0017,"dx":0.0017,"nx":28,"ny":28,"refTime":"2024-05-09T09:00:00:Z","depth":"4","parameterNumber":3,"parameterNumberName":"V-component_of_CURRENTS"},"data":[0,0,0,0,0,0,0,0,0,0,0,0,0,0,0,0,0,0,0,0,0,0,0,0,0,0,0,0,0,0,0,0,0,0,0,0,0,0,0,0,0,0,0,0,0,0,0,0,0,0,0,0,0,0,0,0,0,0,0.0394,0.0393,0,0.0342,0.0342,0.0341,0.0308,0.0308,0.0307,0.0307,0.0247,0.0245,0.0244,0,0,0,0,0,0,0,0,0,0,0,0,0,0.0367,0.0368,0.0394,0.0393,0.0392,0.0342,0.0342,0.0341,0.0308,0.0308,0.0307,0.0307,0.0247,0.0245,0.0244,0,0,0,0,0,0,0,0,0,0,0,0,0,0.0354,0.0368,0.0394,0.037,0.0367,0.0342,0.0342,0.0341,0.0308,0.0308,0.0307,0.0307,0.0248,0.0245,0.0243,0.0237,0,0,0.0237,0.0236,0,0,0,0,0,0,0,0,0.0355,0.0355,0.0374,0.0371,0.0368,0.0331,0.031,0.0306,0.0308,0.0331,0.0307,0.0307,0.0274,0.027,0.0261,0.0235,0.0232,0.0237,0.0236,0.0235,0.0234,0,0,0,0,0,0,0,0.0356,0.0356,0.0374,0.0373,0.037,0.0328,0.0327,0.0308,0.0305,0.0329,0.0326,0.032,0.0272,0.0263,0.026,0.0231,0.0237,0.0235,0.0234,0.0233,0.0219,0.022,0,0,0,0,0,0,0.0367,0.0358,0.0375,0.0372,0.036,0.0329,0.0328,0.0343,0.0305,0.0299,0.032,0.0319,0.0267,0.0262,0.0257,0.029,0.0235,0.0233,0.0231,0.0218,0.0219,0.022,0,0,0,0,0,0,0.0367,0.037,0.0377,0.0362,0.036,0.0331,0.0348,0.0343,0.034,0.0299,0.0293,0.0324,0.0267,0.026,0.0256,0.0285,0.0232,0.023,0.0217,0.0218,0.022,0.0328,0,0,0,0,0,0,0.0367,0.0371,0.0392,0.0364,0.0361,0.0373,0.0348,0.0342,0.0336,0.0333,0.03,0.0293,0.0266,0.026,0.0254,0.0282,0.0228,0.0216,0.0218,0.0219,0.0323,0.0333,0.0341,0,0,0,0,0,0.0367,0.0395,0.0394,0.0395,0.039,0.0373,0.0369,0.0345,0.0337,0.0341,0.0324,0.0295,0.0266,0.0259,0.0252,0.028,0.0215,0.0217,0.0219,0.0319,0.0331,0.0341,0,0,0,0,0,0,0.0385,0.0393,0.0391,0.0419,0.0403,0.0368,0.0374,0.0354,0.0343,0.0344,0.0307,0.03,0.031,0.0276,0.0269,0.0279,0.0235,0.0236,0.0314,0.0324,0.0333,0.0334,0.0226,0,0,0,0,0,0.0403,0.0436,0.0416,0.044,0.0437,0.0409,0.0401,0.0382,0.0364,0.0359,0.0339,0.0318,0.0312,0.0303,0.0288,0.0291,0.0234,0.0302,0.0311,0.0319,0.0315,0.0254,0.0257,0.0227,0.0227,0.0227,0,0,0.0411,0.0425,0.0439,0.0447,0.0437,0.0443,0.0404,0.0398,0.0408,0.0354,0.0372,0.0352,0.0321,0.0332,0.0332,0.0307,0.0299,0.0322,0.0329,0.0319,0.0256,0.0259,0.0261,0.0228,0.0228,0.0227,0,0,0.0446,0.0463,0.0499,0.0496,0.0489,0.0472,0.0475,0.045,0.0447,0.0452,0.0426,0.0418,0.0404,0.0387,0.0377,0.042,0.0352,0.0422,0.0464,0.0407,0.0409,0.0409,0.0347,0.0341,0.0421,0.0422,0.0422,0,0.0457,0.0504,0.05,0.0527,0.0533,0.0493,0.0514,0.0506,0.0483,0.0491,0.0471,0.0455,0.0429,0.0439,0.0458,0.0441,0.0394,0.0432,0.0418,0.0418,0.0417,0.0352,0.0344,0.0427,0.0427,0.0426,0.0425,0,0.0505,0.0547,0.0565,0.06,0.0602,0.0612,0.0597,0.0603,0.0594,0.0582,0.0591,0.0548,0.0535,0.0532,0.051,0.0503,0.0468,0.0442,0.0393,0.0426,0.0356,0.0346,0.0435,0.0433,0.0431,0.043,0,0,0.0521,0.059,0.0597,0.0634,0.0642,0.0648,0.0675,0.0686,0.0711,0.0682,0.0704,0.0684,0.0652,0.0636,0.0602,0.055,0.0507,0.0501,0.0495,0.0442,0.0375,0.0333,0.0317,0.0482,0.048,0.0479,0.0331,0,0.0561,0.0639,0.0657,0.072,0.0755,0.0746,0.078,0.0783,0.0779,0.0789,0.0741,0.0746,0.0696,0.0692,0.0636,0.0541,0.0485,0.0549,0.0346,0.034,0.0301,0.0305,0.0476,0.0323,0.0321,0.0319,0.0318,0,0.0597,0.0652,0.0729,0.0804,0.0818,0.0851,0.0894,0.0915,0.0917,0.0914,0.0893,0.085,0.0791,0.0737,0.0572,0.0616,0.0507,0.0419,0.041,0.0323,0.0279,0.0279,0.0298,0.03,0.0301,0.0303,0.0304,0,0.061,0.07,0.0772,0.0793,0.0864,0.0908,0.094,0.0961,0.0993,0.0989,0.0994,0.0918,0.0871,0.073,0.055,0.0561,0.0345,0.0334,0.0189,0.0184,0.0219,0.0219,0.0209,0.0209,0.021,0.021,0.0211,0,0.0642,0.07,0.0795,0.0834,0.0927,0.0955,0.1038,0.1057,0.1087,0.112,0.106,0.1041,0.0865,0.0725,0.0563,0.0336,0.0347,0.0188,0.0142,0.0269,0.0277,0.0211,0.0214,0.0205,0.0206,0.0207,0.0208,0,0.0645,0.0704,0.0796,0.0898,0.0942,0.1004,0.1113,0.1162,0.1179,0.1212,0.1212,0.1121,0.0933,0.0734,0.0485,0.0348,0.0141,0.0058,0.0201,0.0166,0.0018,0.0027,-0.0111,-0.0114,-0.0116,-0.0118,-0.012,0,0.0657,0.0709,0.0841,0.0904,0.0963,0.1067,0.1142,0.1206,0.125,0.1249,0.1254,0.111,0.1015,0.0634,0.0423,0.0099,0.0056,-0.0051,-0.0007,0.0015,-0.0016,-0.0003,0.001,-0.0124,-0.0124,-0.0125,-0.0125,0,0.068,0.0728,0.0798,0.0932,0.1033,0.1141,0.1244,0.1284,0.1334,0.1349,0.1274,0.1102,0.0884,0.0616,0.0357,0.0131,0.0022,-0.0076,-0.0072,-0.0032,-0.0002,-0.0027,-0.0012,-0.0133,-0.0132,-0.0132,-0.0131,0,0.0695,0.074,0.0839,0.0952,0.1078,0.1182,0.1239,0.1288,0.1335,0.1329,0.1294,0.1087,0.0975,0.0629,0.0392,0.0161,0.0111,0.0049,0.0045,0.0052,0.0144,0.0209,0.0095,0,0,0,0,0,0.0712,0.0759,0.0856,0.0981,0.1103,0.1181,0.1294,0.1335,0.1381,0.1331,0.1318,0.1118,0.0777,0.0639,0.0397,0.0339,0.0064,0.0047,-0.0011,-0.0178,-0.0169,-0.0092,0,0,0,0,0,0,0.0719,0.0804,0.0844,0.0989,0.1074,0.1213,0.1288,0.1318,0.129,0.1295,0.1117,0.1048,0.0715,0.0908,0.0388,0.0321,0.0248,-0.0103,-0.0109,-0.0184,-0.0175,-0.0168,-0.0085,0,0,0,0,0]}]]